Wind_Speed
26 26 26 27 27 27 27 27 27 27 27 27 27 26 26 26 26 26 26 27 27 28 28 28 28 28 28 29 29 30 31 32 32 33 33 34 35 35 35 36 36 36 37 37 37 37 37 38 38 38 38 37 36 35 36 37 36 35 34 33 32 32 32 32 33 33 33 32 32
26 26 26 26 26 27 27 26 26 26 26 26 27 27 27 26 26 26 26 27 27 27 27 27 27 27 28 28 28 29 30 31 32 33 33 34 34 35 35 36 36 36 37 37 37 37 37 38 38 38 37 37 35 35 36 37 37 36 35 33 32 32 32 32 33 34 34 34 33
25 25 25 25 26 26 26 26 26 26 26 26 27 27 27 27 26 26 26 26 26 26 26 26 26 27 27 27 28 28 29 30 31 32 33 33 34 34 35 35 36 36 36 36 37 37 37 37 37 37 36 35 35 35 36 36 36 36 35 34 33 32 31 32 33 34 35 34 34
25 25 25 25 25 26 27 27 27 27 27 26 26 26 26 26 26 26 25 25 25 25 25 26 26 26 26 26 27 27 28 29 30 31 32 33 33 34 34 35 35 35 36 36 36 36 36 36 36 35 34 35 35 36 36 36 35 36 36 35 34 32 31 31 31 33 34 34 35
25 25 25 25 25 26 27 27 27 27 27 26 26 26 26 25 25 25 25 25 25 25 25 25 25 25 25 25 26 27 27 28 29 30 32 33 33 33 34 34 34 34 35 35 35 35 35 34 34 33 34 34 35 35 35 34 34 34 35 36 35 33 32 31 31 32 32 33 34
25 25 25 25 25 25 26 26 27 27 27 26 26 26 26 25 25 25 25 25 25 25 24 24 24 24 24 25 26 26 27 28 29 30 31 32 32 33 33 33 33 34 34 34 34 34 33 32 32 33 33 34 34 34 33 32 32 32 33 34 35 33 31 30 30 31 31 31 32
25 25 24 24 24 24 25 25 25 25 26 26 26 26 26 26 26 25 25 25 24 24 23 24 24 24 24 25 25 26 27 28 28 29 30 31 32 32 32 32 33 33 33 33 33 32 32 32 32 32 33 33 33 33 33 32 32 32 33 33 34 33 31 30 30 30 30 31 31
24 24 24 23 23 23 24 24 24 24 25 25 25 26 26 26 25 25 24 24 23 23 23 23 23 24 24 24 25 25 26 27 28 29 30 30 31 31 32 32 32 32 32 32 32 31 31 31 31 31 32 32 32 32 32 32 32 32 32 33 33 32 31 31 31 31 30 30 30
22 23 23 22 22 22 22 22 23 23 24 24 24 25 25 25 24 24 24 23 23 22 22 22 22 23 23 24 24 24 25 26 26 27 29 29 30 30 31 31 31 31 31 31 31 30 30 30 31 31 31 31 30 30 31 31 31 32 32 32 32 32 32 32 31 30 30 29 30
22 22 22 22 21 21 21 21 21 22 22 23 23 23 23 23 23 23 22 22 22 21 21 21 21 22 22 22 23 23 24 24 25 26 27 28 29 29 29 30 30 30 30 30 29 29 29 29 30 30 31 30 30 29 30 30 30 30 31 31 31 31 31 31 31 30 29 29 29
21 21 22 21 21 21 21 20 21 21 21 21 21 21 21 21 21 21 21 21 21 21 20 20 20 20 21 21 21 21 22 23 25 25 26 27 27 28 28 28 29 29 28 28 28 28 28 28 29 29 30 30 29 29 29 29 29 29 29 29 29 29 29 30 30 29 28 28 28
21 21 21 21 21 21 20 20 20 20 20 20 20 20 20 20 20 20 20 20 20 19 19 19 19 19 19 19 19 20 21 23 24 25 25 26 26 26 27 27 27 27 27 27 27 27 27 27 27 28 28 28 27 27 27 28 28 27 27 27 27 27 27 28 28 28 28 27 27
20 20 20 20 21 20 20 20 20 20 20 19 19 19 19 19 19 19 19 19 19 18 18 17 17 17 17 18 19 20 21 22 23 23 24 24 24 24 25 25 25 25 25 25 25 25 25 25 26 26 25 25 25 25 26 26 26 26 25 25 25 26 26 27 28 28 28 27 26
19 19 19 20 20 20 20 20 20 19 19 19 19 19 19 18 18 18 18 18 17 17 17 17 17 17 18 19 19 20 20 21 21 22 22 22 22 23 23 23 23 23 23 23 23 23 24 24 24 24 24 24 25 25 25 25 25 25 25 25 26 26 26 26 27 27 27 27 27
18 19 19 19 19 20 20 20 20 19 19 19 19 19 18 18 18 18 17 17 17 17 17 17 18 18 19 19 19 19 20 20 20 20 21 21 21 21 21 21 21 21 21 21 21 22 22 23 23 24 24 24 25 25 25 26 26 26 26 26 26 26 26 26 26 26 26 27 27
18 18 18 19 19 19 19 19 19 19 19 19 19 19 19 18 18 17 17 17 17 17 17 18 18 18 18 18 18 18 19 19 19 19 19 19 19 20 20 20 20 20 20 20 20 21 21 22 23 23 23 23 24 24 25 25 25 25 25 26 26 26 25 25 25 25 26 26 26
18 18 18 18 19 19 19 19 19 19 19 19 19 19 18 18 17 17 17 17 17 17 17 17 17 17 17 17 17 17 18 17 18 18 18 18 18 18 18 19 19 19 19 19 19 19 20 21 21 22 22 22 22 22 23 23 23 23 24 24 24 24 24 24 24 24 24 24 24
18 18 18 18 18 18 19 19 19 19 19 19 19 18 18 17 17 16 16 16 16 16 16 16 16 16 16 16 16 16 16 16 16 17 17 17 17 17 17 17 17 17 17 17 18 18 19 19 19 20 20 20 20 20 21 21 21 22 22 22 23 23 23 23 23 23 23 23 23
17 18 18 18 18 18 18 18 19 19 18 18 17 17 16 16 15 15 15 15 15 15 14 14 14 14 14 14 14 14 14 15 15 15 15 15 15 15 15 15 15 16 16 16 16 16 17 17 17 17 18 18 18 19 19 20 20 20 21 21 22 22 22 22 22 22 21 21 22
17 17 17 17 17 17 17 17 17 17 16 16 15 15 15 14 14 14 14 14 13 13 12 12 12 12 12 12 12 12 13 13 13 13 13 13 13 13 13 13 14 14 14 14 15 15 15 15 15 16 16 16 17 17 18 18 19 19 20 20 21 21 21 22 21 21 21 21 21
15 15 15 15 15 15 15 15 15 14 14 14 13 13 12 12 12 12 11 11 11 11 10 10 10 10 10 10 10 10 10 10 10 10 10 10 11 11 12 12 12 12 13 13 13 13 14 14 14 14 15 15 15 16 16 17 18 18 19 19 20 20 21 21 21 21 20 20 20
13 13 13 13 13 13 12 12 12 12 12 11 11 10 10 10 9 9 9 9 8 8 8 7 7 7 7 7 7 7 7 7 8 8 8 8 9 9 10 10 11 11 11 11 12 12 12 12 13 13 13 13 13 14 15 15 16 17 18 18 19 19 19 20 20 19 19 19 18
11 11 11 10 10 10 10 10 10 10 9 9 8 8 7 7 6 6 6 5 5 5 4 4 4 3 3 3 4 4 4 5 5 6 6 7 7 8 8 9 9 10 10 10 10 11 11 11 11 11 11 11 12 12 13 14 15 16 17 17 17 17 17 18 18 18 17 17 17
9 9 9 9 9 9 8 8 8 7 7 6 6 5 5 4 4 3 3 3 2 2 1 1 0 0 1 1 2 2 3 3 4 4 5 5 6 7 7 8 8 9 9 9 9 9 9 9 9 9 9 9 10 10 11 12 13 14 14 15 16 16 16 16 16 16 16 16 16
10 9 9 8 8 8 7 7 7 6 6 6 6 6 6 5 5 5 5 4 4 4 3 3 3 2 2 2 2 2 2 3 3 4 4 5 5 6 6 7 7 8 8 8 8 8 8 8 8 8 7 7 8 8 9 9 10 11 12 13 13 14 14 14 14 15 15 15 15
11 11 11 10 10 9 9 9 9 9 9 9 9 9 9 9 8 8 7 7 6 6 6 5 5 4 4 4 4 3 3 3 4 4 4 5 5 5 5 6 6 7 7 7 7 7 7 7 7 7 7 7 7 8 8 8 9 9 10 11 11 12 13 13 13 13 13 13 13
14 14 13 13 13 13 13 13 13 12 12 12 12 12 11 10 10 10 9 9 8 8 7 7 7 6 6 6 6 6 6 5 6 6 6 6 6 6 6 6 6 6 6 7 7 7 7 7 7 7 7 7 8 9 9 10 9 9 9 10 10 10 11 12 12 12 12 11 11
16 16 16 16 16 16 15 15 14 14 14 13 13 13 12 11 11 11 11 11 10 9 9 9 9 8 8 8 8 8 8 8 8 8 8 8 8 8 8 8 7 7 8 8 8 8 8 7 5 5 6 7 8 9 10 10 11 11 10 10 10 10 10 10 10 10 10 10 10
17 17 17 17 17 17 16 15 15 15 14 14 13 13 13 12 12 12 12 12 12 12 11 11 11 10 10 11 11 11 11 11 11 10 10 10 10 10 9 9 9 9 9 9 9 9 8 7 4 2 4 6 8 9 10 11 11 11 11 11 11 10 10 10 10 10 10 10 10
18 18 18 18 18 17 16 16 15 15 15 14 14 13 13 13 14 14 14 14 14 14 13 13 13 13 13 14 13 13 13 13 13 12 12 12 12 11 11 10 10 10 10 10 10 9 8 7 6 3 3 6 7 8 9 10 11 11 12 12 12 12 11 11 11 10 11 10 10
18 18 18 18 18 18 17 16 16 16 15 15 15 14 15 15 15 15 15 15 16 15 15 14 15 15 16 15 15 15 15 14 14 13 13 13 13 12 12 11 11 11 11 10 10 10 9 8 7 5 4 5 6 7 8 9 10 11 12 12 12 12 11 11 11 11 11 11 10
18 18 18 19 19 18 18 17 17 17 16 16 16 16 16 17 17 17 17 17 17 17 16 16 17 17 17 16 16 16 15 15 15 14 14 13 13 13 12 12 12 12 12 11 11 10 10 9 8 7 5 4 5 6 8 9 10 11 11 12 11 11 11 10 10 10 10 9 9
19 18 19 19 20 19 19 18 18 18 18 18 18 18 18 19 19 19 19 18 18 18 18 18 18 17 17 17 16 16 16 15 15 14 14 14 14 13 13 13 13 13 13 12 12 11 10 9 8 7 6 5 5 6 8 8 9 10 10 10 10 9 9 9 8 8 8 8 9
19 19 20 21 21 21 20 20 19 19 19 20 20 20 20 20 20 20 19 19 18 18 18 18 18 18 17 17 17 16 16 16 15 15 15 15 14 15 15 16 16 15 14 13 13 12 11 10 9 7 6 6 6 7 7 8 8 9 9 9 9 9 9 9 9 9 9 9 9
20 21 22 22 22 22 21 21 20 20 21 22 22 22 22 21 20 20 19 19 18 18 18 18 18 17 17 17 16 16 16 16 16 16 16 16 16 17 18 19 18 18 16 15 14 13 12 10 9 7 7 6 7 7 7 8 9 9 9 10 10 11 11 11 11 11 11 11 11
21 22 23 24 23 23 22 22 22 22 23 23 23 22 22 21 20 19 18 18 18 19 19 18 18 17 17 17 17 17 17 17 17 17 17 17 17 19 21 21 21 19 18 16 15 13 12 11 10 8 8 8 8 9 9 9 10 11 12 12 13 13 13 13 13 12 12 12 12
22 23 24 24 24 23 23 23 23 24 24 24 23 22 21 21 20 19 18 17 18 19 19 19 18 18 18 18 18 18 18 17 17 18 18 18 18 20 22 22 22 20 18 16 15 14 13 12 11 11 10 11 11 11 11 11 12 12 13 14 14 14 13 13 13 12 12 12 12
22 23 24 25 24 24 23 23 24 24 24 23 22 22 21 20 20 18 17 17 18 19 19 19 18 18 18 18 18 19 18 18 17 18 18 19 19 20 21 22 22 21 19 17 16 15 13 13 12 12 12 12 12 11 11 11 12 13 13 14 14 13 13 13 13 13 13 13 13
23 23 24 24 24 24 24 24 24 23 23 22 22 21 21 20 19 19 18 17 17 18 19 19 19 18 17 17 18 19 19 18 17 18 18 19 18 18 19 21 21 20 19 18 17 16 15 14 13 13 12 12 12 12 11 11 11 12 13 13 13 13 13 13 13 13 13 13 14
23 23 23 24 24 24 24 24 23 23 22 22 21 21 20 20 19 18 17 17 17 18 18 19 19 18 18 18 18 19 19 19 18 18 18 18 17 17 17 18 18 18 18 17 17 16 16 15 15 14 13 13 13 12 11 11 12 13 14 14 14 13 13 13 13 14 14 15 15
22 23 23 23 23 23 23 23 23 22 21 21 20 20 19 19 18 18 17 17 17 18 18 19 19 19 19 18 19 20 20 20 19 18 17 16 16 15 15 15 16 16 16 16 16 16 16 16 15 15 14 14 13 12 12 12 13 14 15 15 14 14 14 14 14 15 15 16 16
Wind_Direction
200 199 199 200 201 200 200 199 200 200 200 199 197 198 199 202 204 206 210 212 215 218 221 223 226 229 230 232 233 235 236 237 238 238 238 238 239 240 241 242 243 244 245 246 246 247 247 248 248 248 247 247 248 248 247 247 246 247 247 248 249 251 252 252 252 251 251 250 249
200 200 200 201 201 201 200 199 199 200 201 202 202 203 204 205 207 209 212 215 218 221 224 226 229 230 232 233 235 237 238 239 240 240 240 240 241 242 242 242 243 244 244 245 246 246 246 246 246 246 247 248 249 249 248 247 246 246 247 248 250 251 252 254 255 255 255 253 252
200 199 199 200 200 200 199 198 199 201 202 204 206 207 208 209 210 213 215 218 222 224 226 228 230 232 233 235 237 238 239 241 241 241 242 243 243 243 243 243 243 244 245 245 246 246 246 245 245 246 247 249 250 249 249 248 247 246 246 248 250 251 251 254 257 259 258 256 254
200 200 199 199 200 201 201 201 202 203 205 206 207 208 210 211 213 216 219 222 224 225 227 230 232 234 235 236 238 239 241 242 242 242 243 244 244 244 244 244 244 245 245 246 246 245 245 245 246 247 249 251 251 250 250 249 248 247 247 248 250 250 252 255 258 260 260 259 257
200 200 200 201 202 204 205 206 206 206 207 208 208 208 210 212 214 217 220 222 224 227 230 232 234 235 237 238 239 240 242 243 243 243 244 244 245 245 246 246 246 247 247 247 247 246 247 247 248 250 251 252 251 251 250 249 248 248 248 249 249 250 253 257 260 262 262 261 260
200 201 202 203 204 205 207 209 209 209 209 209 208 209 210 212 215 218 220 223 227 230 232 233 234 236 238 239 240 242 242 243 244 244 245 245 246 246 246 247 248 248 249 249 249 249 250 251 251 252 252 252 251 250 250 249 248 248 248 249 250 251 253 256 260 261 261 260 260
201 201 202 203 204 206 207 209 210 211 211 211 210 211 213 215 217 220 223 227 230 231 232 233 234 236 238 239 241 242 243 244 245 245 246 247 247 247 247 248 249 250 250 251 252 253 253 254 253 252 253 252 251 250 250 249 249 249 249 249 250 252 253 256 259 260 259 257 256
202 202 203 203 205 206 208 210 210 210 210 211 213 215 217 219 221 223 226 229 230 232 234 235 236 238 240 241 242 244 244 245 246 247 248 248 248 249 249 250 250 251 252 253 254 254 254 254 254 253 253 253 252 251 251 251 250 250 250 250 251 252 253 255 258 258 256 254 253
202 202 203 204 205 207 209 211 211 211 211 214 216 219 221 223 225 226 228 230 232 235 236 237 239 241 242 243 245 246 247 248 249 250 250 250 251 251 252 253 253 254 254 255 255 254 254 254 254 254 255 254 253 252 253 253 252 251 251 251 251 253 254 255 256 256 255 253 251
201 202 203 204 205 208 210 211 213 214 215 217 220 222 224 225 227 229 232 234 236 237 238 240 241 242 243 245 247 249 251 252 253 253 253 253 253 254 255 256 256 256 256 256 256 255 254 254 254 254 255 254 253 253 254 255 254 254 253 254 253 254 255 256 256 255 254 253 252
203 204 204 205 206 208 209 211 213 215 217 219 222 223 225 227 230 232 235 237 237 238 240 243 244 244 245 248 251 254 255 255 254 254 254 254 255 256 256 257 258 258 258 258 258 257 256 255 255 255 254 254 254 254 255 256 257 256 256 256 255 255 255 256 256 255 254 254 254
204 205 206 207 207 208 209 211 212 214 217 219 222 224 227 229 232 234 235 235 236 239 243 247 247 248 250 253 256 257 256 255 254 255 255 256 257 258 258 259 260 261 261 261 260 259 258 257 257 256 255 255 255 255 256 257 258 258 258 258 257 257 257 258 258 258 257 257 256
205 205 206 207 207 208 209 211 213 215 217 220 223 226 229 231 233 234 234 234 238 242 245 247 250 252 253 255 256 257 257 257 257 257 258 259 260 261 262 263 264 264 263 262 261 260 260 259 258 257 256 255 256 256 257 258 259 259 260 260 259 259 260 260 261 261 261 261 260
205 205 206 206 207 208 210 212 214 216 218 221 225 228 230 232 233 233 234 236 240 243 245 248 250 251 252 253 255 257 259 260 261 261 262 263 265 265 266 266 266 265 264 263 262 261 261 261 260 259 258 257 258 259 260 261 262 262 263 263 263 264 264 264 264 263 263 263 263
202 204 205 206 207 209 210 212 215 218 220 223 226 229 230 231 232 233 235 237 240 243 245 247 248 250 251 253 256 259 260 262 263 264 266 267 267 268 268 268 267 267 265 264 263 263 263 263 263 263 263 263 263 264 265 266 267 268 268 268 269 269 269 268 267 266 266 266 266
200 203 205 206 207 209 211 213 216 219 221 224 226 228 229 230 231 233 235 237 240 242 244 246 248 251 254 256 258 259 261 262 264 266 267 267 267 267 268 268 268 268 268 267 266 266 267 269 269 269 269 269 269 270 271 272 273 273 274 274 274 274 274 272 271 270 270 270 269
200 202 204 206 208 210 212 214 217 219 221 223 225 226 227 229 230 233 235 237 240 242 244 247 250 253 255 257 259 260 261 263 265 266 267 267 268 268 269 271 272 274 274 274 273 273 274 275 276 276 276 275 275 275 276 277 277 278 278 278 278 278 278 277 275 274 274 274 273
200 202 204 206 208 210 212 214 216 218 220 222 224 225 227 229 230 233 235 239 241 243 246 249 251 253 255 257 260 262 263 264 266 268 269 271 272 274 275 277 279 281 281 282 281 281 281 282 282 282 281 280 280 280 280 281 281 282 282 283 282 282 282 280 280 279 278 278 279
199 201 203 205 207 209 211 213 216 218 220 222 224 225 227 229 231 234 236 240 242 245 247 249 251 254 257 259 262 264 266 268 270 273 275 278 280 281 281 282 283 285 286 287 288 288 288 287 286 285 284 283 283 284 284 285 286 287 288 288 287 286 285 284 284 283 283 283 284
198 200 202 204 206 208 211 213 216 218 220 222 224 226 228 230 232 235 237 240 243 246 248 250 253 257 260 264 267 269 272 275 278 281 283 285 285 284 284 284 285 287 289 291 292 292 292 291 290 288 287 286 287 287 288 290 291 292 293 293 292 290 289 288 288 288 288 288 287
196 198 200 203 205 208 210 213 215 217 219 222 224 226 228 231 233 235 238 241 245 247 250 253 257 262 266 270 275 278 282 285 288 288 288 289 287 287 286 287 287 290 293 295 296 297 297 296 294 292 291 291 292 293 294 295 295 296 296 296 295 294 293 292 292 291 291 291 289
191 194 197 201 203 206 208 210 213 215 217 220 223 225 227 229 231 234 238 242 245 248 251 256 262 268 274 280 285 289 292 294 294 293 292 291 291 291 292 293 294 296 297 299 301 302 303 303 302 300 299 298 299 301 301 300 299 299 298 297 296 296 296 296 295 295 294 293 292
183 187 190 194 197 200 202 204 207 210 212 214 216 218 221 222 225 227 231 235 238 243 248 256 265 274 285 293 300 303 303 301 299 298 298 298 299 300 301 302 303 304 305 307 308 309 310 311 311 311 310 308 308 308 307 305 303 301 300 299 299 299 299 299 299 298 297 296 293
169 173 177 180 183 186 189 192 194 196 196 195 194 193 191 189 188 188 187 186 187 187 190 188 200 316 340 340 337 331 324 318 315 312 311 312 312 313 313 314 315 315 317 318 319 320 322 324 324 324 323 321 319 316 314 311 308 306 304 303 303 303 303 302 302 300 299 296 294
151 153 156 158 161 162 163 164 163 159 154 148 143 138 135 132 130 129 127 125 121 116 111 104 95 84 68 53 39 23 10 358 348 342 337 334 333 332 332 331 331 332 332 333 334 336 340 343 344 344 342 340 336 333 329 325 320 316 313 311 310 308 307 305 304 302 300 298 295
135 135 134 134 134 132 131 128 126 123 121 120 118 117 116 114 113 112 112 110 107 104 100 95 90 83 77 69 61 53 44 35 28 22 16 11 6 2 359 357 356 355 354 354 356 360 4 5 6 5 4 3 0 358 354 349 343 336 329 323 320 316 313 309 307 306 304 302 300
126 124 122 120 119 117 116 115 114 114 114 113 113 112 111 110 110 109 107 105 103 100 98 94 90 85 82 78 74 69 64 60 55 51 48 45 41 37 33 29 26 25 23 23 25 27 27 23 16 11 11 12 13 12 11 7 3 357 350 343 337 331 325 320 317 315 312 310 309
120 119 117 116 115 113 113 113 114 113 113 113 112 111 111 111 110 109 107 104 102 100 98 94 91 89 87 85 81 78 75 73 69 67 65 64 61 59 56 54 52 49 47 45 45 46 45 41 25 2 355 3 13 17 17 16 14 12 9 5 360 354 347 341 336 332 328 325 322
119 119 118 117 115 115 115 115 115 114 113 113 113 113 113 113 112 110 108 105 102 99 95 93 92 92 90 87 85 83 81 79 77 75 74 73 72 71 69 67 66 64 60 57 55 56 56 57 58 17 339 349 8 17 18 18 18 19 20 20 18 14 10 4 359 354 349 345 339
121 121 121 119 118 117 116 115 114 114 114 114 115 116 116 115 112 109 106 104 100 97 94 94 94 93 91 88 87 86 84 83 82 81 80 79 78 77 76 74 73 71 68 64 62 61 60 60 63 49 351 348 6 14 15 16 17 19 22 23 23 21 19 15 11 6 1 355 349
124 124 124 122 120 117 116 115 114 114 114 115 116 117 115 112 108 105 103 100 98 97 96 97 96 95 93 91 90 88 87 86 85 84 83 82 81 80 79 77 76 75 72 69 66 63 60 58 56 51 28 4 4 9 12 14 15 17 19 21 20 19 16 12 8 4 0 356 351
127 127 126 123 119 116 115 115 114 114 115 116 115 114 111 107 104 102 101 99 98 98 99 99 98 97 95 94 92 91 89 87 86 84 84 83 82 81 80 79 77 75 72 69 65 62 59 58 55 55 53 36 16 14 18 18 19 20 21 21 20 17 13 10 7 4 1 358 355
128 128 125 122 118 116 115 114 114 115 115 114 112 109 106 104 103 102 101 101 100 100 100 99 97 95 94 93 92 90 89 86 84 83 82 82 82 81 80 78 75 72 69 66 64 62 60 58 56 57 59 54 36 28 28 27 27 28 29 29 27 25 22 19 17 14 12 8 5
128 126 122 119 117 115 115 115 115 115 114 111 108 105 104 102 102 101 101 101 101 100 98 96 94 93 92 91 90 88 87 85 83 81 80 80 81 81 79 75 72 69 67 65 64 63 61 59 58 58 57 53 44 40 39 40 42 44 45 44 43 40 38 35 32 30 27 24 21
127 123 119 117 115 115 115 115 115 114 112 108 106 104 103 102 102 101 100 100 101 99 97 95 93 93 92 92 90 88 85 84 81 80 79 79 81 80 77 74 71 68 66 65 65 65 64 63 61 59 58 56 53 51 52 55 58 58 57 56 54 51 47 45 42 40 37 35 32
124 121 118 116 115 115 115 115 114 113 110 107 106 105 104 103 101 100 100 102 102 100 97 95 94 94 92 91 89 86 84 82 82 81 81 81 82 81 79 76 72 69 66 66 67 68 68 67 65 63 63 64 63 62 63 64 64 63 61 58 55 52 49 46 44 41 39 37 34
122 120 118 117 116 115 115 115 113 111 109 107 106 105 104 102 100 100 101 104 104 102 99 97 94 92 90 89 87 86 85 85 85 84 84 84 84 84 83 79 75 71 68 67 68 68 67 66 65 65 64 65 64 64 64 64 63 60 57 53 50 47 43 40 37 34 32 31 28
121 121 120 118 117 116 116 114 112 110 109 108 107 105 104 103 100 100 102 105 106 103 100 97 93 90 89 89 89 89 88 88 88 88 87 87 88 88 87 84 79 74 69 66 63 61 60 60 60 59 58 58 56 55 55 56 55 52 48 46 43 40 36 31 28 25 23 22 20
121 121 120 119 118 117 116 113 111 110 109 108 107 106 105 103 101 101 103 105 105 103 100 96 93 92 92 94 93 92 90 89 88 88 90 91 91 91 90 87 82 76 70 64 60 56 53 50 49 48 48 47 46 43 42 42 42 41 39 36 34 32 29 25 22 19 16 13 10
121 121 121 119 118 117 115 112 110 109 109 109 108 107 105 103 102 102 104 104 103 101 99 96 95 96 97 97 96 94 92 90 87 88 90 92 92 92 91 88 84 79 72 64 59 56 52 47 42 39 39 38 37 34 32 31 33 34 32 29 26 24 21 19 15 13 10 7 3
121 121 120 118 117 116 114 112 111 110 111 110 108 107 105 105 104 105 104 104 102 99 98 98 98 99 99 98 96 94 93 91 88 87 88 90 91 90 88 86 83 78 72 65 59 57 54 50 44 39 36 35 34 32 30 30 33 34 32 27 23 19 16 12 9 7 5 3 1
Height
757 758 759 761 762 763 765 766 768 769 771 772 774 775 776 778 779 780 781 782 783 784 785 786 787 788 790 791 792 793 793 794 795 796 796 797 797 798 799 799 800 800 801 802 802 803 804 804 805 805 805 805 806 807 807 808 809 810 810 811 812 813 814 814 814 814 814 815 815
756 757 759 760 761 763 764 766 768 769 770 772 773 774 775 776 778 779 780 781 782 783 784 785 787 788 789 790 791 792 792 793 794 794 795 796 796 797 797 798 798 799 800 800 801 802 802 802 803 803 803 804 804 805 806 806 807 808 808 809 810 811 812 813 813 813 813 813 813
755 757 758 759 761 762 763 765 767 768 769 771 772 773 774 776 777 778 779 780 781 782 783 784 786 787 787 788 790 790 791 792 792 793 794 795 795 796 796 797 797 797 798 799 799 800 800 801 801 802 802 802 803 803 803 804 805 806 807 807 808 809 810 810 811 812 812 812 812
755 756 757 758 760 761 763 764 766 767 768 770 772 773 774 775 776 777 778 779 780 782 783 783 784 785 787 787 788 789 790 791 792 792 793 793 794 794 795 795 796 796 797 797 798 798 799 799 800 800 801 801 801 801 802 802 804 805 806 806 807 807 807 808 809 810 811 811 811
754 755 756 758 759 760 762 763 765 766 768 769 771 772 773 775 776 777 778 779 779 780 781 782 783 784 785 787 787 788 789 790 790 791 792 792 792 793 794 794 795 795 796 796 797 797 797 798 798 799 799 799 800 800 801 802 803 803 804 805 805 805 806 806 807 808 809 810 810
753 754 756 757 758 760 761 763 764 766 767 768 770 771 773 774 775 776 777 777 778 779 781 782 783 784 785 785 786 787 788 788 789 790 790 791 791 792 792 793 793 794 794 795 795 796 796 797 797 797 798 798 798 799 800 801 801 802 802 803 803 804 804 805 806 806 807 808 809
752 754 755 756 758 759 761 762 764 765 767 768 769 770 771 773 773 774 775 776 778 779 780 781 782 783 783 784 785 786 787 787 788 789 789 790 790 791 791 792 792 792 793 793 794 794 795 795 796 796 796 797 797 797 798 798 799 800 800 801 801 802 803 804 804 804 804 805 806
752 753 755 756 758 759 760 762 763 765 766 767 768 769 770 771 772 773 774 776 777 778 779 780 781 782 783 783 784 785 786 786 787 787 788 789 789 790 790 790 791 791 792 792 792 793 793 794 794 795 795 796 796 796 796 797 797 798 798 799 800 801 802 802 802 802 802 802 803
752 753 754 756 757 758 760 761 763 764 765 766 767 768 770 771 772 773 774 775 776 777 778 779 780 781 782 783 783 784 785 785 786 787 787 788 788 789 789 789 790 790 791 791 791 792 792 793 793 794 794 795 795 795 795 796 796 796 797 797 798 799 800 800 801 800 800 801 801
751 753 754 756 757 758 760 761 762 763 764 766 767 768 769 770 771 772 773 774 775 776 777 778 779 780 781 782 783 783 784 784 785 786 786 787 787 788 788 789 789 789 790 790 790 791 791 792 792 793 793 794 794 794 794 795 795 795 796 797 797 798 798 799 799 799 799 800 800
751 752 753 755 756 758 759 760 762 763 764 765 766 767 768 770 771 772 773 774 775 776 777 778 778 779 780 781 782 783 783 783 784 785 785 786 786 787 787 787 788 788 789 789 789 790 791 791 791 792 792 792 793 793 793 794 794 794 795 796 796 797 797 797 798 798 798 799 799
750 752 753 754 756 757 758 760 761 762 763 764 766 767 768 769 770 771 772 773 774 775 776 777 778 778 779 780 781 781 782 783 783 784 784 785 785 786 786 787 787 787 788 788 789 789 790 790 790 791 791 792 792 792 793 793 793 794 794 795 795 796 796 797 797 797 798 798 799
750 751 753 754 755 757 758 759 760 762 763 764 765 766 767 768 769 770 771 772 773 774 775 776 777 778 778 779 780 780 781 782 782 783 783 784 784 785 785 786 786 787 787 788 788 788 789 789 790 790 791 791 792 792 792 792 792 793 793 794 794 795 795 796 796 797 797 797 798
749 751 752 753 755 756 757 758 760 761 762 763 764 765 766 767 768 769 770 772 773 773 774 775 776 777 778 778 779 780 780 781 782 782 783 783 784 784 785 785 786 786 787 787 787 788 788 789 789 790 790 790 791 791 791 791 792 792 792 793 793 794 794 795 795 795 796 796 796
749 750 752 753 754 756 757 758 759 760 761 762 763 764 766 767 768 769 770 771 772 773 774 774 775 776 777 778 778 779 780 781 781 782 782 783 783 784 784 785 785 786 786 787 787 787 788 788 788 789 789 790 790 790 790 791 791 791 792 792 792 792 793 793 794 794 794 795 795
749 750 751 753 754 755 756 757 758 760 761 762 763 764 765 766 767 768 769 770 771 772 773 774 774 775 776 777 778 779 779 780 781 781 782 782 783 783 783 784 785 785 786 786 787 787 787 788 788 788 789 789 789 789 790 790 790 791 791 791 791 792 792 792 792 793 793 793 793
748 750 751 752 753 754 756 757 758 759 760 761 762 763 764 766 767 768 769 770 771 772 773 773 774 775 776 777 778 778 779 779 780 781 781 782 782 783 783 783 784 785 785 786 786 787 787 787 787 788 788 788 788 789 789 789 789 790 790 790 790 791 791 791 792 792 792 792 792
748 749 750 752 753 754 755 756 758 759 760 761 762 763 764 765 767 768 769 769 770 771 772 773 774 775 776 776 777 778 778 779 780 780 781 781 782 782 783 783 784 784 785 785 786 786 786 787 787 787 787 787 788 788 788 788 788 789 789 789 789 790 790 790 790 791 791 791 791
748 749 750 751 753 754 755 756 757 758 759 761 762 763 764 765 766 768 768 769 770 771 772 773 774 774 775 776 777 778 778 779 779 780 780 781 781 782 782 783 783 784 784 784 785 785 785 786 786 786 787 787 787 787 787 787 787 788 788 788 788 788 789 789 789 790 790 790 790
748 749 750 751 752 753 755 756 757 758 759 761 762 763 764 765 766 767 768 769 770 771 772 773 773 774 775 776 777 777 778 778 779 779 780 780 781 781 782 783 783 783 784 784 784 785 785 785 786 786 786 786 787 787 787 787 787 787 787 787 787 788 788 788 789 789 789 789 789
748 749 750 751 753 753 755 756 757 758 760 761 762 763 764 765 766 767 768 769 770 771 772 773 773 774 775 776 776 777 778 778 779 779 780 780 781 781 782 782 783 783 783 783 784 784 784 785 785 785 786 786 786 786 787 787 787 787 787 787 787 787 787 788 788 788 788 788 789
748 749 750 751 753 754 755 756 758 758 760 761 762 763 764 765 766 767 768 769 770 771 772 773 773 774 775 776 776 777 777 778 778 779 779 780 780 781 781 782 782 783 783 783 783 784 784 784 785 785 785 785 786 786 786 786 786 786 786 786 787 787 787 787 787 787 787 788 788
748 749 750 752 753 754 755 756 758 758 760 761 762 763 764 765 766 767 768 769 770 771 772 773 773 774 775 775 776 777 777 778 778 779 779 780 780 781 781 781 782 782 783 783 783 783 784 784 784 785 785 785 785 785 786 786 786 786 786 786 786 786 786 786 787 787 787 787 787
748 750 751 752 753 754 755 757 758 759 760 761 762 763 764 765 766 767 768 769 770 771 772 772 773 774 774 775 776 776 777 778 778 778 779 779 780 780 781 781 782 782 782 783 783 783 783 783 784 784 784 785 785 785 785 785 785 785 785 785 785 785 786 786 786 786 786 787 787
749 750 751 752 753 754 756 757 758 759 760 761 762 763 764 765 766 767 768 769 770 771 772 772 773 774 774 775 776 776 777 777 778 778 779 779 780 780 780 781 781 782 782 782 782 783 783 783 783 784 784 784 784 784 785 785 785 785 785 785 785 785 785 785 785 786 786 786 786
749 750 751 753 754 755 756 757 758 759 760 761 762 763 764 765 766 767 768 769 770 771 771 772 773 773 774 775 775 776 777 777 778 778 778 779 779 780 780 781 781 781 782 782 782 782 782 783 783 783 783 784 784 784 784 784 784 784 784 784 784 784 784 785 785 785 786 786 786
750 751 752 753 754 755 757 758 758 760 761 762 763 763 765 766 767 767 768 769 770 771 772 772 773 773 774 775 775 776 776 777 777 778 778 779 779 779 780 780 781 781 781 781 782 782 782 782 783 783 783 783 783 784 784 784 784 784 784 784 784 784 784 785 785 785 786 786 786
750 751 753 753 755 756 757 758 759 760 761 762 763 764 765 766 767 768 768 769 770 771 772 772 773 773 774 775 775 776 776 777 777 778 778 778 779 779 780 780 780 780 781 781 781 782 782 782 783 783 783 783 783 784 784 784 784 784 784 784 784 784 784 785 785 785 786 786 786
751 752 753 754 755 757 758 759 760 761 762 763 763 764 765 766 767 768 768 769 770 771 772 773 773 774 774 775 775 776 776 777 778 778 778 778 779 779 779 780 780 780 781 781 781 781 782 782 783 783 783 783 783 784 784 784 784 784 784 784 784 784 785 785 785 785 786 786 786
752 753 753 755 756 757 758 759 760 761 762 763 764 765 766 766 767 768 769 770 771 771 772 773 773 774 774 775 776 776 777 777 778 778 778 778 778 779 779 779 780 780 781 781 781 782 782 782 783 783 783 783 783 784 784 784 785 785 785 785 785 785 785 785 785 785 786 786 786
753 753 754 755 756 758 759 760 761 762 763 763 764 765 766 767 768 769 769 770 771 772 773 773 774 774 775 775 776 776 777 777 778 778 778 778 778 779 779 780 780 780 781 781 781 782 782 782 783 783 783 783 784 784 784 785 785 785 785 785 785 785 785 785 785 786 786 786 786
753 754 755 756 757 758 759 760 762 763 763 764 765 766 767 768 768 769 770 771 772 773 773 774 774 774 775 776 776 777 777 777 778 778 778 778 779 779 780 780 780 781 781 782 782 782 782 783 783 783 783 784 784 784 784 785 785 785 785 785 785 785 785 786 786 786 786 786 785
754 755 756 757 758 759 760 761 762 763 764 765 766 766 767 768 769 770 771 772 772 773 773 774 774 775 776 776 777 777 777 778 778 778 779 779 779 780 780 780 781 781 782 782 782 783 783 783 783 783 783 784 784 784 785 785 785 785 785 785 785 785 785 785 785 785 785 785 785
754 755 756 758 758 760 761 762 763 764 764 765 766 767 768 769 770 771 771 772 773 773 774 774 775 776 776 777 777 778 778 778 779 779 780 780 780 781 781 781 782 782 783 783 783 783 783 784 783 783 784 784 784 784 785 785 785 785 785 785 785 785 785 785 785 785 785 785 785
755 756 757 758 759 761 762 763 763 764 765 766 767 768 769 770 770 771 772 773 773 774 774 775 776 776 777 777 778 778 778 779 779 780 781 781 781 781 782 782 783 783 784 784 784 784 784 784 784 784 784 784 785 785 785 785 785 785 785 785 785 786 786 786 786 786 786 785 785
756 757 758 759 760 761 763 763 764 765 766 767 768 769 769 770 771 772 773 773 774 774 775 776 776 777 777 778 778 779 779 780 780 781 781 782 782 782 783 783 784 784 785 785 785 785 785 785 785 785 785 785 785 785 785 785 785 786 786 786 786 786 786 786 786 786 786 786 786
757 758 758 760 761 762 763 764 765 766 767 768 768 769 770 771 772 773 773 774 774 775 775 776 777 777 778 778 779 780 780 781 781 782 782 783 783 783 783 784 785 785 786 786 786 785 785 786 786 786 786 786 786 786 786 786 786 786 786 786 787 787 787 787 787 786 786 786 786
758 759 759 760 762 763 764 765 765 766 767 768 769 770 771 772 773 773 774 775 775 775 776 777 777 778 779 779 780 780 781 782 782 783 783 783 784 784 784 785 785 786 787 787 787 786 786 786 787 787 786 786 786 787 787 787 787 787 787 787 787 787 787 787 787 787 786 786 786
759 760 761 761 763 763 764 765 766 767 768 769 770 771 772 773 773 774 775 776 776 776 777 777 778 779 780 780 781 781 782 783 783 783 783 784 785 785 785 785 786 787 787 788 788 787 787 787 787 787 787 787 787 787 787 787 787 787 787 787 787 787 787 787 787 787 787 786 786
760 761 762 763 763 764 765 766 767 768 769 770 771 772 773 773 774 775 776 776 777 777 778 778 779 780 781 781 781 782 783 783 784 784 785 785 786 786 786 786 787 787 788 789 789 788 788 788 788 788 788 787 787 787 787 787 787 787 787 787 787 787 787 787 787 787 787 786 786
761 762 763 763 764 765 766 767 768 769 770 771 772 773 773 774 775 776 776 777 777 778 778 779 780 781 782 782 782 783 783 784 785 785 786 786 787 787 787 787 787 788 788 789 789 789 789 789 789 788 788 788 788 788 788 787 787 787 787 788 788 787 787 787 787 787 787 786 786